Murray, KY

5:24 AM CDT on April 24, 2017 (GMT -0500)
Kyle-Oakley

Weather History for KCEY - October, 2013

Change the Weather History Date:

Monday, October 28, 2013

  Actual Average (KPAH) Record (KPAH)
Temperature  
Mean Temperature 60 °F -  
Max Temperature 69 °F 67 °F 86 °F (1940)
Min Temperature 51 °F 42 °F 24 °F (1976)
Degree Days  
Heating Degree Days 5    
Growing Degree Days 10 (Base 50)    
Moisture  
Dew Point 53 °F    
Average Humidity 86    
Maximum Humidity 100    
Minimum Humidity 49    
Precipitation  
Precipitation 0.00 in - - ()
Sea Level Pressure  
Sea Level Pressure 30.17 in    
Wind  
Wind Speed 2 mph (South)    
Max Wind Speed 9 mph    
Max Gust Speed -    
Visibility 8 miles    
Events      
Averages and records for this station are not official NWS values.
T = Trace of Precipitation, MM = Missing Value Source: NWS Daily Summary

Daily Weather History Graph

Daily Weather History Graph

Search for Another Location

Airport or City:

Trip Planner

Search our weather history database for the weather conditions in past years. The results will help you decide how hot, cold, wet, or windy it might be!

Date:

Astronomy

Oct. 28, 2013 Rise Set
Actual Time 7:13 AM CDT 6:00 PM CDT
Civil Twilight 6:46 AM CDT 6:27 PM CDT
Nautical Twilight 6:16 AM CDT 6:57 PM CDT
Astronomical Twilight 5:46 AM CDT 7:27 PM CDT
Moon 1:15 AM CDT (10/28) 2:34 PM CDT (10/28)
Length of Visible Light 11h 40m
Length of Day
10h 47m
Waning Crescent, 34% of the Moon is Illuminated
Oct 28
Waning Crescent
Nov 3
New
Nov 9
First Quarter
Nov 17
Full
Nov 25
Last Quarter

Hourly Weather History & Observations

Time (CDT) Temp. Dew Point Humidity Pressure Visibility Wind Dir Wind Speed Gust Speed Precip Events Conditions
12:15 AM 53.6 °F 53.6 °F 100% 30.07 in 10.0 mi SE 3.5 mph - N/A   Overcast
12:35 AM 55.4 °F 53.6 °F 94% 30.07 in 5.0 mi SE 3.5 mph - N/A   Overcast
12:55 AM 55.4 °F 53.6 °F 94% 30.07 in 5.0 mi Calm Calm - N/A   Overcast
1:15 AM 55.4 °F 53.6 °F 94% 30.07 in 5.0 mi Calm Calm - N/A   Overcast
1:35 AM 55.4 °F 53.6 °F 94% 30.07 in 6.0 mi Calm Calm - N/A   Overcast
1:55 AM 55.4 °F 53.6 °F 94% 30.07 in 5.0 mi SE 3.5 mph - N/A   Overcast
2:15 AM 55.4 °F 53.6 °F 94% 30.07 in 3.0 mi SE 3.5 mph - N/A   Overcast
2:35 AM 55.4 °F 53.6 °F 94% 30.07 in 5.0 mi Calm Calm - N/A   Overcast
2:55 AM 55.4 °F 53.6 °F 94% 30.07 in 8.0 mi Calm Calm - N/A   Overcast
3:15 AM 55.4 °F 53.6 °F 94% 30.07 in 7.0 mi Calm Calm - N/A   Overcast
3:35 AM 53.6 °F 53.6 °F 100% 30.07 in 8.0 mi Calm Calm - N/A   Overcast
3:55 AM 53.6 °F 53.6 °F 100% 30.07 in 7.0 mi Calm Calm - N/A   Overcast
4:15 AM 53.6 °F 53.6 °F 100% 30.08 in 8.0 mi Calm Calm - N/A   Overcast
4:35 AM 53.6 °F 53.6 °F 100% 30.09 in 8.0 mi Calm Calm - N/A   Overcast
4:55 AM 53.6 °F 53.6 °F 100% 30.10 in 7.0 mi Calm Calm - N/A   Overcast
5:15 AM 53.6 °F 53.6 °F 100% 30.11 in 9.0 mi Calm Calm - N/A   Overcast
5:35 AM 53.6 °F 53.6 °F 100% 30.11 in 7.0 mi Calm Calm - N/A   Overcast
5:55 AM 53.6 °F 53.6 °F 100% 30.12 in 7.0 mi Calm Calm - N/A   Overcast
6:15 AM 53.6 °F 53.6 °F 100% 30.12 in 7.0 mi Calm Calm - N/A   Overcast
6:35 AM 53.6 °F 53.6 °F 100% 30.13 in 5.0 mi Calm Calm - N/A   Overcast
6:55 AM 53.6 °F 53.6 °F 100% 30.14 in 5.0 mi Calm Calm - N/A   Overcast
7:15 AM 53.6 °F 53.6 °F 100% 30.14 in 3.0 mi SW 3.5 mph - N/A   Overcast
7:35 AM 53.6 °F 53.6 °F 100% 30.16 in 2.5 mi Calm Calm - N/A   Overcast
7:55 AM 53.6 °F 53.6 °F 100% 30.17 in 3.0 mi Calm Calm - N/A   Overcast
8:15 AM 53.6 °F 53.6 °F 100% 30.17 in 3.0 mi Calm Calm - N/A   Overcast
8:35 AM 55.4 °F 55.4 °F 100% 30.19 in 3.0 mi Calm Calm - N/A   Overcast
8:55 AM 55.4 °F 55.4 °F 100% 30.20 in 4.0 mi WNW 4.6 mph - N/A   Overcast
9:15 AM 55.4 °F 55.4 °F 100% 30.21 in 5.0 mi WNW 4.6 mph - N/A   Overcast
9:35 AM 55.4 °F 53.6 °F 94% 30.22 in 5.0 mi West 5.8 mph - N/A   Overcast
9:55 AM 57.2 °F 53.6 °F 88% 30.22 in 8.0 mi Calm Calm - N/A   Overcast
10:15 AM 57.2 °F 53.6 °F 88% 30.21 in 9.0 mi Calm Calm - N/A   Scattered Clouds
10:35 AM 59.0 °F 55.4 °F 88% 30.22 in 10.0 mi NW 3.5 mph - N/A   Clear
10:55 AM 59.0 °F 53.6 °F 82% 30.22 in 10.0 mi Calm Calm - N/A   Clear
11:15 AM 62.6 °F 53.6 °F 72% 30.21 in 10.0 mi Calm Calm - N/A   Partly Cloudy
11:35 AM 62.6 °F 53.6 °F 72% 30.21 in 10.0 mi North 5.8 mph - N/A   Mostly Cloudy
11:55 AM 64.4 °F 53.6 °F 68% 30.20 in 10.0 mi Calm Calm - N/A   Mostly Cloudy
12:15 PM 64.4 °F 53.6 °F 68% 30.20 in 10.0 mi East 3.5 mph - N/A   Mostly Cloudy
12:35 PM 64.4 °F 53.6 °F 68% 30.20 in 10.0 mi NNE 3.5 mph - N/A   Overcast
12:55 PM 64.4 °F 53.6 °F 68% 30.19 in 10.0 mi NW 3.5 mph - N/A   Overcast
1:15 PM 64.4 °F 53.6 °F 68% 30.18 in 10.0 mi NW 4.6 mph - N/A   Overcast
1:35 PM 66.2 °F 53.6 °F 64% 30.18 in 10.0 mi WSW 3.5 mph - N/A   Overcast
1:55 PM 66.2 °F 51.8 °F 60% 30.18 in 10.0 mi Calm Calm - N/A   Overcast
2:15 PM 68.0 °F 51.8 °F 56% 30.17 in 10.0 mi SSW 5.8 mph - N/A   Overcast
2:35 PM 66.2 °F 51.8 °F 60% 30.18 in 10.0 mi WNW 4.6 mph - N/A   Mostly Cloudy
2:55 PM 66.2 °F 50.0 °F 56% 30.17 in 10.0 mi NW 4.6 mph - N/A   Mostly Cloudy
3:15 PM 66.2 °F 50.0 °F 56% 30.17 in 10.0 mi Calm Calm - N/A   Overcast
3:35 PM 68.0 °F 50.0 °F 52% 30.17 in 10.0 mi Calm Calm - N/A   Overcast
3:55 PM 69.8 °F 50.0 °F 49% 30.18 in 10.0 mi WSW 9.2 mph - N/A   Mostly Cloudy
4:15 PM 68.0 °F 50.0 °F 52% 30.18 in 10.0 mi WSW 6.9 mph - N/A   Clear
4:35 PM 68.0 °F 50.0 °F 52% 30.18 in 10.0 mi SW 4.6 mph - N/A   Clear
4:55 PM 66.2 °F 51.8 °F 60% 30.18 in 10.0 mi West 4.6 mph - N/A   Clear
5:15 PM 64.4 °F 53.6 °F 68% 30.19 in 10.0 mi SW 3.5 mph - N/A   Clear
5:35 PM 62.6 °F 53.6 °F 72% 30.19 in 10.0 mi Calm Calm - N/A   Clear
5:55 PM 59.0 °F 53.6 °F 82% 30.19 in 10.0 mi Calm Calm - N/A   Clear
6:15 PM 59.0 °F 51.8 °F 77% 30.19 in 10.0 mi Calm Calm - N/A   Partly Cloudy
6:35 PM 59.0 °F 51.8 °F 77% 30.20 in 10.0 mi East 3.5 mph - N/A   Mostly Cloudy
6:55 PM 57.2 °F 53.6 °F 88% 30.20 in 10.0 mi East 3.5 mph - N/A   Overcast
7:15 PM 57.2 °F 53.6 °F 88% 30.22 in 10.0 mi Calm Calm - N/A   Overcast
7:35 PM 57.2 °F 53.6 °F 88% 30.22 in 10.0 mi Calm Calm - N/A   Overcast
7:55 PM 55.4 °F 53.6 °F 94% 30.23 in 10.0 mi Calm Calm - N/A   Overcast
8:15 PM 55.4 °F 53.6 °F 94% 30.24 in 10.0 mi Calm Calm - N/A   Overcast
8:35 PM 55.4 °F 51.8 °F 88% 30.24 in 10.0 mi Calm Calm - N/A   Overcast
8:55 PM 53.6 °F 51.8 °F 94% 30.24 in 10.0 mi East 3.5 mph - N/A   Mostly Cloudy
9:15 PM 53.6 °F 51.8 °F 94% 30.24 in 5.0 mi East 4.6 mph - N/A   Mostly Cloudy
9:35 PM 51.8 °F 51.8 °F 100% 30.24 in 5.0 mi SE 3.5 mph - N/A   Overcast
9:55 PM 53.6 °F 53.6 °F 100% 30.24 in 7.0 mi SE 3.5 mph - N/A   Overcast
10:15 PM 53.6 °F 53.6 °F 100% 30.24 in 4.0 mi SE 5.8 mph - N/A   Overcast
10:35 PM 53.6 °F 53.6 °F 100% 30.24 in 3.0 mi SE 4.6 mph - N/A   Overcast
10:55 PM 53.6 °F 53.6 °F 100% 30.25 in 3.0 mi SSE 3.5 mph - N/A   Overcast
11:15 PM 53.6 °F 53.6 °F 100% 30.24 in 3.0 mi SE 4.6 mph - N/A   Overcast
11:35 PM 51.8 °F 51.8 °F 100% 30.26 in 2.5 mi Calm Calm - N/A   Mostly Cloudy
11:55 PM 53.6 °F 51.8 °F 94% 30.26 in 3.0 mi Calm Calm - N/A   Mostly Cloudy